Orbital Elements at Epoch 2459200.5 (2020-Dec-17.0) TDB
Reference: JPL 34 (heliocentric ecliptic J2000)
Element | Value | Uncertainty (1-sigma) | Units |
e | .06610775299158916 | 3.5891e-08 | |
a | 2.615706758695327 | 1.0835e-08 | au |
q | 2.442788262393066 | 9.5439e-08 | au |
i | 3.701506470311792 | 4.3419e-06 | deg |
node | 191.4611927549722 | 4.9759e-05 | deg |
peri | 126.8770464038783 | 5.7446e-05 | deg |
M | 205.0876304865598 | 2.8188e-05 | deg |
tp | 2459865.414195278626 (2022-Oct-12.91419528) | 0.00012095 | TDB |
period | 1545.190426381914 4.23 | 9.6008e-06 2.629e-08 | d yr |
n | .2329809930565938 | 1.4476e-09 | deg/d |
Q | 2.788625254997588 | 1.1551e-08 | au |
|
| | Orbit Determination Parameters
Additional Information
|